UNK - Orbit

View from above orbital plane
View from above orbital plane
View from above satellite
View from above satellite

Ground track
Ground track

The orbit data is extracted from the following two-line orbital elements,

1 28188U 04008B   13143.13186000  .00006119  00000-0  10490-2 0  3863
2 28188 049.4843 111.6593 5209051 033.7135 016.3789 05.27474690173189
Epoch (UTC): 23 May 2013 03:09:52
Eccentricity: 0.5209051
inclination: 49.4843°
perigee height: 300 km
apogee height: 14823 km
right ascension of ascending node: 111.6593°
argument of perigee: 33.7135°
revolutions per day: 5.27474690
mean anomaly at epoch: 16.3789°
orbit number at epoch: 17318

The dashed part of the orbit path shows where the satellite is in the earth's shadow,  

Developed and maintained by Chris Peat, Heavens-Above GmbH. Please read the updated FAQ before sending e-mail. Imprint. DLR